User: anonymous   Login
Location: Unspecified
(0.0000°N, 0.0000°E)
Time: 13:18:59
(UTC+00:00)
Language:

Cosmos 80 Rocket - Orbit

View from above orbital plane
View from above orbital plane
View from above satellite
View from above satellite

Ground track
Ground track

The orbit data is extracted from the following two-line orbital elements,

1 01575U 65070F   21266.95480200 -.00000077  00000-0  11932-3 0  9995
2 01575  56.1238 146.2940 0095306 264.1381 185.7492 12.56974731573588
Epoch (UTC): 23 September 2021 22:54:54
Eccentricity: 0.0095306
inclination: 56.1238°
perigee height: 1361 km
apogee height: 1510 km
right ascension of ascending node: 146.2940°
argument of perigee: 264.1381°
revolutions per day: 12.56974731
mean anomaly at epoch: 185.7492°
orbit number at epoch: 57358

The dashed part of the orbit path shows where the satellite is in the earth's shadow,  

DLR